[[{"header":{"parameterUnit":"m.s-1","parameterCategory":1,"la1":30.2991,"la2":30.254,"lo1":-89.0895,"lo2":-89.0444,"dy":0.0017,"dx":0.0017,"nx":28,"ny":28,"refTime":"2025-09-15T09:00:00:Z","depth":0,"parameterNumber":2,"parameterNumberName":"U-component_of_WINDS"},"data":[0,0,0,0,0,0,0,0,0,0,0,0,0,0,0,0,0,0,0,0,0,0,0,0,0,0,0,0,0,0,0,0,0,0,0,0,0,0,0,0,0,0,0,0,0,0,0,0,0,0,0,0,0,0,0,0,0,0,0.0902,0.0902,0,0.091,0.091,0.091,0.0919,0.0919,0.092,0.092,0.0927,0.0927,0.0927,0,0,0,0,0,0,0,0,0,0,0,0,0,0.0894,0.0894,0.0902,0.0902,0.0902,0.091,0.091,0.091,0.0919,0.0919,0.092,0.092,0.0927,0.0927,0.0927,0,0,0,0,0,0,0,0,0,0,0,0,0,0.0899,0.0894,0.0902,0.0908,0.0909,0.091,0.091,0.091,0.0919,0.0919,0.092,0.092,0.0926,0.0927,0.0927,0.0923,0,0,0.0927,0.0927,0,0,0,0,0,0,0,0,0.0899,0.0899,0.0907,0.0908,0.0908,0.0914,0.091,0.0914,0.0919,0.0915,0.092,0.092,0.0922,0.0923,0.0923,0.0923,0.0923,0.0927,0.0927,0.0927,0.0927,0,0,0,0,0,0,0,0.0898,0.0899,0.0905,0.0907,0.0908,0.091,0.0911,0.091,0.0917,0.0915,0.0916,0.0917,0.0922,0.0923,0.0924,0.0923,0.0927,0.0927,0.0927,0.0927,0.0919,0.0918,0,0,0,0,0,0,0.0897,0.0899,0.0905,0.0905,0.0904,0.0909,0.0911,0.0912,0.0917,0.0918,0.0917,0.0917,0.0923,0.0924,0.0924,0.0919,0.0927,0.0927,0.0927,0.0919,0.0919,0.0918,0,0,0,0,0,0,0.0897,0.0898,0.0905,0.0902,0.0903,0.0909,0.0911,0.0912,0.0913,0.0918,0.0919,0.0917,0.0923,0.0924,0.0923,0.0919,0.0927,0.0927,0.0919,0.0919,0.0919,0.0909,0,0,0,0,0,0,0.0897,0.0898,0.0897,0.0902,0.0903,0.0904,0.091,0.0912,0.0913,0.0914,0.0918,0.0919,0.0924,0.0923,0.0923,0.0919,0.0927,0.092,0.0919,0.0919,0.091,0.0908,0.0907,0,0,0,0,0,0.0897,0.0894,0.0897,0.0897,0.0902,0.0904,0.0904,0.0909,0.0913,0.0911,0.0915,0.0919,0.092,0.0922,0.0923,0.0919,0.092,0.0919,0.0919,0.091,0.0909,0.0907,0,0,0,0,0,0,0.0888,0.0895,0.0898,0.0897,0.09,0.0905,0.0904,0.0908,0.0909,0.091,0.0916,0.0917,0.0915,0.0917,0.092,0.0915,0.092,0.092,0.0914,0.0912,0.0911,0.091,0.0927,0,0,0,0,0,0.0886,0.0887,0.0893,0.0891,0.0892,0.0898,0.0898,0.0902,0.0905,0.0906,0.0909,0.0912,0.0912,0.0912,0.0913,0.091,0.0911,0.0908,0.0907,0.0906,0.0905,0.0902,0.0901,0.0916,0.0916,0.0916,0,0,0.0882,0.0886,0.0886,0.0889,0.0892,0.0892,0.0899,0.0899,0.0899,0.0906,0.0905,0.0907,0.091,0.0908,0.0907,0.0909,0.0901,0.0905,0.0904,0.0904,0.0901,0.09,0.0898,0.0916,0.0916,0.0916,0,0,0.0874,0.0877,0.0876,0.0878,0.0882,0.0885,0.0885,0.089,0.0891,0.0891,0.0896,0.0895,0.0897,0.0898,0.0899,0.0891,0.0894,0.0891,0.0884,0.0881,0.088,0.0879,0.0875,0.0874,0.089,0.089,0.089,0,0.0868,0.0869,0.0875,0.0874,0.0875,0.0882,0.088,0.0882,0.0885,0.0886,0.0889,0.0889,0.0892,0.0889,0.0887,0.0888,0.0887,0.089,0.088,0.0879,0.0878,0.0874,0.0873,0.0889,0.089,0.089,0.089,0,0.0861,0.0862,0.086,0.0863,0.0864,0.0863,0.0868,0.0868,0.0871,0.0874,0.0872,0.0875,0.0876,0.0876,0.088,0.0874,0.0875,0.0879,0.0884,0.0876,0.0872,0.0871,0.0889,0.0889,0.0889,0.0889,0,0,0.0849,0.0855,0.0854,0.0855,0.0859,0.0859,0.0857,0.0859,0.0858,0.086,0.0858,0.0859,0.0862,0.0863,0.0866,0.0864,0.0856,0.0868,0.0868,0.0865,0.0848,0.0845,0.0843,0.0858,0.0858,0.0858,0.0848,0,0.0842,0.084,0.0845,0.0841,0.0841,0.0847,0.0845,0.0847,0.085,0.0849,0.0852,0.0851,0.0856,0.0857,0.0855,0.0857,0.0852,0.0858,0.0856,0.0856,0.0855,0.0841,0.0838,0.0828,0.0846,0.0846,0.0846,0,0.0833,0.0834,0.0831,0.0834,0.0834,0.0833,0.0833,0.0833,0.0835,0.0837,0.0837,0.0841,0.0839,0.0844,0.0841,0.0845,0.0844,0.0845,0.0845,0.0844,0.085,0.084,0.0825,0.0823,0.0844,0.0844,0.0845,0,0.0823,0.0824,0.0822,0.0823,0.0826,0.0825,0.0826,0.0828,0.0828,0.0829,0.0829,0.0829,0.0829,0.0829,0.0832,0.0836,0.0828,0.0834,0.0829,0.0828,0.0826,0.0826,0.0811,0.0827,0.0827,0.0827,0.0827,0,0.0814,0.0812,0.0817,0.0816,0.0813,0.0818,0.0815,0.0817,0.0818,0.0817,0.0822,0.082,0.0825,0.0824,0.0826,0.0822,0.0823,0.0823,0.0824,0.0823,0.0822,0.0822,0.0822,0.0827,0.0827,0.0827,0.0827,0,0.0803,0.0807,0.0805,0.0808,0.0809,0.0806,0.0809,0.0807,0.081,0.0807,0.0807,0.0811,0.0809,0.0813,0.0812,0.0814,0.0808,0.081,0.0807,0.0808,0.0802,0.0802,0.0785,0.0782,0.0801,0.0801,0.0801,0,0.0797,0.0795,0.0798,0.0797,0.0798,0.0797,0.0797,0.0801,0.0801,0.0802,0.08,0.0799,0.0798,0.0795,0.0798,0.0797,0.0798,0.0792,0.0798,0.0796,0.0797,0.0797,0.0796,0.0791,0.0791,0.079,0.079,0,0.0785,0.0787,0.0786,0.0786,0.0786,0.0786,0.0786,0.0785,0.079,0.0789,0.0787,0.0787,0.0785,0.0784,0.0783,0.0784,0.0787,0.0788,0.0787,0.0785,0.0783,0.0783,0.0803,0.0789,0.0789,0.0789,0.0789,0.0789,0.0776,0.0774,0.0775,0.0774,0.0775,0.0775,0.0773,0.0775,0.0774,0.0773,0.0776,0.0773,0.0774,0.0773,0.0773,0.0771,0.0774,0.0772,0.0771,0.0771,0.0769,0.0784,0.0771,0.0771,0.0771,0.0771,0.0771,0,0.0764,0.0764,0.0764,0.0764,0.0762,0.0766,0.0766,0.0765,0.0763,0.0763,0.0762,0.0759,0.0758,0.0759,0.0758,0.0755,0.0757,0.0755,0.0755,0.0754,0.0767,0.0768,0.0754,0.0754,0.0754,0.0754,0.0754,0.0754,0.0757,0.0754,0.0755,0.0752,0.0753,0.075,0.075,0.0749,0.075,0.0747,0.0745,0.0746,0.0747,0.0745,0.0743,0.0743,0.0742,0.0739,0.074,0.0752,0.0754,0.0755,0.0756,0.0739,0.0739,0.0727,0.0727,0.0727]},{"header":{"parameterUnit":"m.s-1","parameterCategory":1,"la1":30.2991,"la2":30.254,"lo1":-89.0895,"lo2":-89.0444,"dy":0.0017,"dx":0.0017,"nx":28,"ny":28,"refTime":"2025-09-15T09:00:00:Z","depth":0,"parameterNumber":3,"parameterNumberName":"V-component_of_WINDS"},"data":[0,0,0,0,0,0,0,0,0,0,0,0,0,0,0,0,0,0,0,0,0,0,0,0,0,0,0,0,0,0,0,0,0,0,0,0,0,0,0,0,0,0,0,0,0,0,0,0,0,0,0,0,0,0,0,0,0,0,2.9705,2.9705,0,2.9675,2.9674,2.9674,2.9606,2.9605,2.9603,2.9602,2.957,2.9571,2.9571,0,0,0,0,0,0,0,0,0,0,0,0,0,2.9705,2.9705,2.9705,2.9705,2.9705,2.9675,2.9674,2.9674,2.9606,2.9605,2.9603,2.9601,2.957,2.9571,2.9571,0,0,0,0,0,0,0,0,0,0,0,0,0,2.9693,2.9706,2.9705,2.9667,2.9664,2.9675,2.9674,2.9674,2.9607,2.9605,2.9602,2.96,2.957,2.9571,2.9571,2.9617,0,0,2.9573,2.9574,0,0,0,0,0,0,0,0,2.9694,2.9693,2.9673,2.967,2.9666,2.9642,2.9662,2.9655,2.9607,2.9628,2.9602,2.9599,2.9596,2.9594,2.9593,2.9616,2.9614,2.9574,2.9574,2.9574,2.9574,0,0,0,0,0,0,0,2.9695,2.9694,2.9693,2.9673,2.9669,2.9651,2.9647,2.9661,2.9624,2.9626,2.9621,2.9619,2.9593,2.9593,2.9592,2.9614,2.9574,2.9574,2.9575,2.9575,2.967,2.9672,0,0,0,0,0,0,2.9701,2.9695,2.9694,2.9692,2.9675,2.9653,2.9649,2.9652,2.9624,2.9618,2.962,2.9615,2.9592,2.9591,2.9591,2.964,2.9574,2.9575,2.9575,2.9668,2.967,2.9673,0,0,0,0,0,0,2.9701,2.9702,2.9695,2.9692,2.969,2.9655,2.9659,2.9652,2.9651,2.9619,2.9612,2.9626,2.9591,2.959,2.961,2.9638,2.9575,2.9576,2.9665,2.9669,2.9672,2.9741,0,0,0,0,0,0,2.9702,2.9702,2.9719,2.9693,2.9691,2.9716,2.9661,2.9653,2.9653,2.9646,2.9623,2.9617,2.9589,2.961,2.9611,2.9638,2.9576,2.9663,2.9667,2.9671,2.9736,2.9746,2.9755,0,0,0,0,0,2.9702,2.9741,2.9721,2.9721,2.9711,2.9718,2.9717,2.9683,2.9655,2.9672,2.9651,2.9618,2.9636,2.9613,2.9614,2.9641,2.9661,2.9666,2.967,2.9732,2.9744,2.9755,0,0,0,0,0,0,2.9771,2.9737,2.9714,2.9745,2.9735,2.9707,2.9727,2.9698,2.9696,2.9689,2.9649,2.9644,2.967,2.9658,2.9633,2.9683,2.9643,2.9648,2.9689,2.9701,2.971,2.9711,2.9577,0,0,0,0,0,2.979,2.9799,2.9768,2.9799,2.9795,2.9762,2.9764,2.9739,2.9727,2.9722,2.9703,2.9692,2.9695,2.9697,2.9698,2.9735,2.9728,2.9754,2.9763,2.9771,2.9776,2.9792,2.9802,2.9688,2.9688,2.9688,0,0,2.983,2.9812,2.9819,2.9812,2.9801,2.981,2.9759,2.9771,2.9777,2.9724,2.9741,2.9727,2.9713,2.9741,2.9752,2.9731,2.9806,2.9777,2.9784,2.9784,2.9798,2.9809,2.9818,2.9692,2.9691,2.9691,0,0,2.9905,2.9893,2.9916,2.9907,2.9891,2.9868,2.9874,2.985,2.9838,2.9855,2.9815,2.9822,2.9828,2.9818,2.9815,2.9886,2.9854,2.9888,2.9936,2.9952,2.9961,2.9969,2.9992,3.0001,2.9892,2.9893,2.9893,0,2.9956,2.9968,2.9932,2.9946,2.9944,2.9896,2.9919,2.9911,2.9896,2.9895,2.9872,2.9878,2.9865,2.9889,2.9906,2.9906,2.991,2.9889,2.9963,2.997,2.9977,2.9998,3.0008,2.9897,2.9896,2.9896,2.9895,0,3.003,3.0039,3.0059,3.0046,3.0046,3.0064,3.0031,3.0035,3.0011,2.9991,3.0008,2.9991,2.9986,2.9991,2.9968,3.0012,2.9999,2.997,2.9929,2.9992,3.0012,3.002,2.9902,2.9901,2.99,2.9899,0,0,3.0147,3.0113,3.0121,3.0113,3.0092,3.0098,3.0115,3.011,3.0113,3.0105,3.0116,3.0122,3.0095,3.0091,3.0066,3.0081,3.0135,3.0049,3.0048,3.0064,3.018,3.02,3.0211,3.0115,3.0117,3.0118,3.0181,0,3.0216,3.0241,3.0209,3.0241,3.0248,3.0203,3.0216,3.0204,3.0186,3.0189,3.0169,3.0173,3.0138,3.0135,3.0147,3.0126,3.0158,3.0121,3.0124,3.0124,3.0127,3.0221,3.0243,3.0303,3.0188,3.019,3.0191,0,3.0299,3.0294,3.0326,3.0301,3.0303,3.0316,3.0308,3.0312,3.0298,3.0283,3.0278,3.0248,3.0261,3.0223,3.0239,3.0215,3.0214,3.0204,3.0206,3.0203,3.016,3.0219,3.0322,3.033,3.0203,3.0202,3.0201,0,3.0379,3.038,3.0399,3.0394,3.0367,3.0376,3.0365,3.0349,3.0347,3.0341,3.034,3.0335,3.0332,3.0329,3.0299,3.0274,3.0318,3.0277,3.0305,3.0306,3.0315,3.0314,3.0417,3.0319,3.0318,3.0318,3.0318,0,3.0458,3.0479,3.0434,3.0445,3.0467,3.0431,3.0453,3.0437,3.0423,3.043,3.0391,3.0399,3.0359,3.0361,3.0338,3.0354,3.0353,3.0341,3.0334,3.0343,3.0344,3.0341,3.0335,3.0321,3.032,3.032,3.0319,0,3.0549,3.0521,3.0538,3.051,3.0504,3.0521,3.0496,3.0505,3.0485,3.0494,3.0494,3.0462,3.0463,3.0432,3.0428,3.0411,3.0437,3.0424,3.0442,3.0437,3.0465,3.0462,3.0567,3.0578,3.0475,3.0476,3.0477,0,3.0601,3.0615,3.0589,3.0591,3.0581,3.0585,3.0584,3.0548,3.0548,3.0532,3.0543,3.0541,3.0537,3.0541,3.0516,3.0512,3.0497,3.0534,3.0496,3.0504,3.0495,3.0493,3.0494,3.0541,3.0543,3.0544,3.0545,0,3.0694,3.0678,3.0678,3.0672,3.0671,3.0665,3.0656,3.0659,3.0621,3.0622,3.0623,3.062,3.0615,3.0612,3.0604,3.0591,3.0561,3.0557,3.0563,3.0571,3.058,3.0573,3.0461,3.0554,3.0553,3.0553,3.0552,3.0552,3.0765,3.0775,3.0758,3.0758,3.0748,3.074,3.0746,3.0727,3.0726,3.0719,3.0698,3.0702,3.0686,3.067,3.0661,3.0663,3.0644,3.0653,3.0655,3.0657,3.0662,3.0582,3.0661,3.0661,3.066,3.066,3.066,0,3.0854,3.0841,3.0841,3.0829,3.0829,3.0802,3.079,3.0791,3.0795,3.0783,3.078,3.0779,3.0777,3.0752,3.0747,3.0753,3.0738,3.0752,3.075,3.0748,3.068,3.0674,3.0764,3.0764,3.0764,3.0763,3.0763,3.0763,3.09,3.0916,3.0899,3.0908,3.0894,3.0897,3.0893,3.0885,3.0875,3.0876,3.0874,3.0858,3.084,3.0833,3.0829,3.0821,3.082,3.0838,3.0826,3.0763,3.0753,3.0743,3.0737,3.0839,3.0839,3.0894,3.0894,3.0895]}]]